Tracking 35055 objects as of 18-Aug-2026
HD Live streaming from Space Station
objects crossing your sky now

PEGASUS DEB


PEGASUS DEB is no longer on orbit


NORAD ID: 24367
Int'l Code: 1994-029PU
Launch date: May 19, 1994
Source: United States (US)
Launch site: AIR FORCE WESTERN TEST RANGE (AFWTR)
Decay date: 1996-12-02

Note: This is SATELLITE DEBRIS
Your satellite tracking list
Your tracking list is empty




NASA's NSSDC Master Catalog

Two Line Element Set (TLE):
1 24367U 94029PU  96336.53207825  .13678318  00000-0  67287-1 0  9993
2 24367 081.7867 010.2430 0011091 035.2555 333.3603 15.76251161135755
Source of the keplerian elements: AFSPC